Location: Bullfrog
(37.5121°N, 110.7330°W)
Time: 16:18:52
(UTC-06:00)

N. Korean satellite - Pass Details

Date: 02 October 2021
Orbit: 450 x 495 km, 97.3° (Epoch: 21 October)

Event Time Altitude Azimuth Distance (km) Brightness Sun altitude
Rises 06:48:31 0° 7° (N) 2,551 10.3 -7.0°
Reaches altitude 10° 06:50:36 10° 4° (N) 1,674 9.4 -6.6°
Maximum altitude 06:54:09 62° 284° (WNW) 556 6.6 -5.9°
Drops below altitude 10° 06:57:43 10° 203° (SSW) 1,679 9.1 -5.2°
Sets 06:59:48 0° 200° (SSW) 2,559 10.0 -4.8°
